• în România
  • Lista ţărilor
  • Pe 7 zile
  • Temperatura apei
  • Hartă satelitară
  • Meteo pe hartă
  • Widget-uri
  • user-avatar
    Intrare

    Meteo pe oră la Mosyagino

    Astăzi, 20 Aprilie, Vineri

    Timp Temperatura Precipitaţii Vânt Presiune Umiditate
    00:00 +5°C° 0 mm 3 m/s 742 mmHg 87%
    01:00 +4°C° 0 mm 3 m/s 742 mmHg 90%
    02:00 +4°C° 0 mm 3 m/s 742 mmHg 93%
    03:00 +4°C° 0 mm 3 m/s 742 mmHg 94%
    04:00 +4°C° 0 mm 3 m/s 743 mmHg 95%
    05:00 +4°C° 0 mm 3 m/s 743 mmHg 97%
    06:00 +4°C° 0 mm 3 m/s 743 mmHg 94%
    07:00 +5°C° 0 mm 3 m/s 743 mmHg 92%
    08:00 +6°C° 0 mm 2 m/s 744 mmHg 90%
    09:00 +7°C° 0 mm 2 m/s 744 mmHg 86%
    10:00 +8°C° 0 mm 2 m/s 744 mmHg 83%
    11:00 +9°C° 0 mm 2 m/s 744 mmHg 80%
    12:00 +10°C° 0,1 mm 2 m/s 744 mmHg 75%
    13:00 +10°C° 0,1 mm 2 m/s 743 mmHg 70%
    14:00 +12°C° 0,1 mm 2 m/s 743 mmHg 66%
    15:00 +12°C° 0 mm 2 m/s 743 mmHg 65%
    16:00 +12°C° 0 mm 2 m/s 742 mmHg 65%
    17:00 +12°C° 0 mm 2 m/s 742 mmHg 64%
    18:00 +10°C° 0 mm 2 m/s 741 mmHg 71%
    19:00 +9°C° 0 mm 2 m/s 741 mmHg 77%
    20:00 +7°C° 0 mm 2 m/s 740 mmHg 84%
    21:00 +8°C° 0 mm 3 m/s 739 mmHg 83%
    22:00 +8°C° 0 mm 3 m/s 738 mmHg 82%
    23:00 +8°C° 0 mm 3 m/s 737 mmHg 81%

    Mâine, 21 Aprilie, Sâmbătă

    Timp Temperatura Precipitaţii Vânt Presiune Umiditate
    00:00 +7°C° 0 mm 4 m/s 736 mmHg 81%
    01:00 +8°C° 0 mm 4 m/s 736 mmHg 82%
    02:00 +8°C° 0 mm 4 m/s 735 mmHg 82%
    03:00 +8°C° 0 mm 4 m/s 734 mmHg 85%
    04:00 +8°C° 0 mm 4 m/s 733 mmHg 88%
    05:00 +8°C° 0 mm 5 m/s 732 mmHg 92%
    06:00 +9°C° 0 mm 5 m/s 731 mmHg 88%
    07:00 +9°C° 0 mm 5 m/s 730 mmHg 85%
    08:00 +10°C° 0 mm 6 m/s 729 mmHg 81%
    09:00 +10°C° 0,2 mm 6 m/s 728 mmHg 82%
    10:00 +10°C° 0,2 mm 6 m/s 727 mmHg 83%
    11:00 +10°C° 0,2 mm 6 m/s 726 mmHg 84%
    12:00 +10°C° 0,4 mm 7 m/s 725 mmHg 79%
    13:00 +10°C° 0,4 mm 8 m/s 725 mmHg 74%
    14:00 +10°C° 0,4 mm 9 m/s 725 mmHg 69%
    15:00 +8°C° 0,1 mm 9 m/s 725 mmHg 69%
    16:00 +7°C° 0,1 mm 9 m/s 726 mmHg 69%
    17:00 +5°C° 0,1 mm 9 m/s 727 mmHg 69%
    18:00 +5°C° 0 mm 8 m/s 727 mmHg 70%
    19:00 +5°C° 0 mm 8 m/s 727 mmHg 71%
    20:00 +4°C° 0 mm 7 m/s 728 mmHg 71%
    21:00 +4°C° 0 mm 7 m/s 728 mmHg 74%
    22:00 +3°C° 0 mm 7 m/s 728 mmHg 76%
    23:00 +2°C° 0 mm 6 m/s 729 mmHg 78%

    Poimâine, 22 Aprilie, Duminică

    Timp Temperatura Precipitaţii Vânt Presiune Umiditate
    00:00 +2°C° 0 mm 6 m/s 729 mmHg 79%
    01:00 +2°C° 0 mm 6 m/s 730 mmHg 80%
    02:00 +1°C° 0 mm 5 m/s 730 mmHg 81%
    03:00 +1°C° 0 mm 5 m/s 730 mmHg 81%
    04:00 0°C° 0 mm 5 m/s 731 mmHg 81%
    05:00 0°C° 0 mm 4 m/s 731 mmHg 81%
    06:00 0°C° 0 mm 4 m/s 731 mmHg 78%
    07:00 +1°C° 0 mm 5 m/s 732 mmHg 74%
    08:00 +1°C° 0 mm 5 m/s 732 mmHg 70%
    09:00 +3°C° 0 mm 4 m/s 732 mmHg 65%
    10:00 +4°C° 0 mm 4 m/s 732 mmHg 61%
    11:00 +6°C° 0 mm 4 m/s 733 mmHg 56%
    12:00 +6°C° 0,1 mm 4 m/s 733 mmHg 55%
    13:00 +6°C° 0,1 mm 4 m/s 733 mmHg 54%
    14:00 +7°C° 0,1 mm 4 m/s 733 mmHg 53%
    15:00 +6°C° 0 mm 4 m/s 734 mmHg 53%
    16:00 +6°C° 0 mm 4 m/s 734 mmHg 52%
    17:00 +6°C° 0 mm 4 m/s 734 mmHg 52%
    18:00 +5°C° 0 mm 3 m/s 735 mmHg 58%
    19:00 +3°C° 0 mm 3 m/s 735 mmHg 63%
    20:00 +3°C° 0 mm 2 m/s 735 mmHg 68%
    21:00 +2°C° 0 mm 2 m/s 736 mmHg 71%
    22:00 +2°C° 0 mm 1 m/s 736 mmHg 74%
    23:00 +1°C° 0 mm 1 m/s 737 mmHg 77%

    23 Aprilie, Luni

    Timp Temperatura Precipitaţii Vânt Presiune Umiditate
    00:00 +1°C° 0 mm 1 m/s 737 mmHg 78%
    01:00 0°C° 0 mm 1 m/s 737 mmHg 78%
    02:00 0°C° 0 mm 1 m/s 738 mmHg 78%
    03:00 0°C° 0 mm 1 m/s 738 mmHg 77%
    04:00 0°C° 0 mm 1 m/s 738 mmHg 77%
    05:00 0°C° 0 mm 1 m/s 739 mmHg 76%
    06:00 -1°C° 0 mm 2 m/s 739 mmHg 67%
    07:00 +2°C° 0 mm 2 m/s 739 mmHg 58%
    08:00 +3°C° 0 mm 2 m/s 739 mmHg 50%
    09:00 +4°C° 0 mm 2 m/s 739 mmHg 46%
    10:00 +5°C° 0 mm 2 m/s 739 mmHg 41%
    11:00 +6°C° 0 mm 2 m/s 740 mmHg 37%
    12:00 +7°C° 0 mm 2 m/s 739 mmHg 37%
    13:00 +7°C° 0 mm 2 m/s 739 mmHg 36%
    14:00 +8°C° 0 mm 2 m/s 739 mmHg 35%
    15:00 +7°C° 0 mm 2 m/s 739 mmHg 37%
    16:00 +7°C° 0 mm 2 m/s 739 mmHg 38%
    17:00 +7°C° 0 mm 2 m/s 739 mmHg 40%
    18:00 +5°C° 0 mm 2 m/s 739 mmHg 46%
    19:00 +5°C° 0 mm 1 m/s 739 mmHg 51%
    20:00 +3°C° 0 mm 1 m/s 739 mmHg 57%
    21:00 +3°C° 0 mm 1 m/s 739 mmHg 61%
    22:00 +2°C° 0 mm 1 m/s 739 mmHg 64%
    23:00 +1°C° 0 mm 1 m/s 739 mmHg 68%

    24 Aprilie, Marţi

    Timp Temperatura Precipitaţii Vânt Presiune Umiditate
    00:00 +1°C° 0 mm 1 m/s 739 mmHg 69%
    01:00 0°C° 0 mm 1 m/s 739 mmHg 70%
    02:00 0°C° 0 mm 1 m/s 739 mmHg 72%
    03:00 -2°C° 0 mm 2 m/s 739 mmHg 71%
    04:00 -2°C° 0 mm 2 m/s 739 mmHg 70%
    05:00 -2°C° 0 mm 2 m/s 739 mmHg 70%
    06:00 +1°C° 0 mm 2 m/s 738 mmHg 61%
    07:00 +2°C° 0 mm 3 m/s 738 mmHg 53%
    08:00 +4°C° 0 mm 3 m/s 738 mmHg 45%
    09:00 +5°C° 0 mm 3 m/s 738 mmHg 43%
    10:00 +7°C° 0 mm 3 m/s 738 mmHg 41%
    11:00 +7°C° 0 mm 4 m/s 737 mmHg 39%
    12:00 +8°C° 0 mm 4 m/s 737 mmHg 39%
    13:00 +10°C° 0 mm 3 m/s 737 mmHg 39%
    14:00 +10°C° 0 mm 3 m/s 736 mmHg 38%
    15:00 +10°C° 0 mm 3 m/s 736 mmHg 40%
    16:00 +10°C° 0 mm 3 m/s 736 mmHg 42%
    17:00 +10°C° 0 mm 3 m/s 735 mmHg 43%
    18:00 +8°C° 0 mm 3 m/s 735 mmHg 50%
    19:00 +5°C° 0 mm 3 m/s 735 mmHg 57%
    20:00 +3°C° 0 mm 3 m/s 735 mmHg 64%
    21:00 +3°C° 0 mm 3 m/s 735 mmHg 65%
    22:00 +2°C° 0 mm 3 m/s 735 mmHg 67%
    23:00 +2°C° 0 mm 3 m/s 734 mmHg 68%

    25 Aprilie, Miercuri

    Timp Temperatura Precipitaţii Vânt Presiune Umiditate
    00:00 +2°C° 0 mm 3 m/s 734 mmHg 70%
    01:00 +2°C° 0 mm 3 m/s 734 mmHg 72%
    02:00 +1°C° 0 mm 3 m/s 734 mmHg 75%
    03:00 +2°C° 0 mm 3 m/s 734 mmHg 76%
    04:00 +2°C° 0 mm 3 m/s 734 mmHg 78%
    05:00 +2°C° 0 mm 3 m/s 734 mmHg 80%
    06:00 +2°C° 0,1 mm 3 m/s 734 mmHg 80%
    07:00 +3°C° 0,1 mm 3 m/s 734 mmHg 80%
    08:00 +4°C° 0,1 mm 3 m/s 734 mmHg 80%
    09:00 +4°C° 0 mm 3 m/s 734 mmHg 80%
    10:00 +5°C° 0 mm 3 m/s 734 mmHg 79%
    11:00 +7°C° 0 mm 3 m/s 734 mmHg 78%
    12:00 +7°C° 0,1 mm 3 m/s 734 mmHg 77%
    13:00 +8°C° 0,1 mm 3 m/s 734 mmHg 75%
    14:00 +9°C° 0,1 mm 3 m/s 734 mmHg 73%
    15:00 +9°C° 0 mm 3 m/s 733 mmHg 71%
    16:00 +9°C° 0 mm 3 m/s 733 mmHg 68%
    17:00 +10°C° 0 mm 3 m/s 733 mmHg 66%
    18:00 +9°C° 0 mm 3 m/s 732 mmHg 70%
    19:00 +8°C° 0 mm 3 m/s 732 mmHg 74%
    20:00 +7°C° 0 mm 3 m/s 731 mmHg 78%
    21:00 +6°C° 0,7 mm 4 m/s 731 mmHg 81%
    22:00 +6°C° 0,7 mm 5 m/s 730 mmHg 84%
    23:00 +6°C° 0,7 mm 5 m/s 729 mmHg 87%
    Arată mai mult